Date String (YYYY-MM-DD hh:mm:ss) UTC,Instrument flags,Ambient pressure (hPa),Sample flow (lpm),Bypass flow (lpm),Sample temperature (°C),Ambient temperature (°C),ASC tube jacket temperature (°C),LED temperature (°C),Box temperature (°C),Sample RH (%),Span deviation,Mass concentration (μg/m³),Mass concentration (μg/m³),Mass concentration (μg/m³)
DateTimeUTC,F1_M11,P_M11,Q1_M11,Q2_M11,T1_M11,T2_M11,T3_M11,T4_M11,T5_M11,U1_M11,ZSPAN_M11,X0_M11,X2_M11,X1_M11
2022-07-15 03:00:00,,0831.2,4.99,0.00,29.5,28.0,00.0,38.0,31.4,27.7,0000.0,0008.33,0004.08,0003.51
2022-07-15 03:01:00,,0831.2,5.00,0.00,29.4,27.2,00.0,38.0,31.2,27.5,0000.0,0008.45,0004.08,0003.50
2022-07-15 03:02:00,,0831.2,5.00,0.00,29.3,26.9,00.0,38.0,31.1,27.7,0000.0,0008.44,0004.06,0003.49
2022-07-15 03:03:00,,0831.2,5.00,0.00,29.3,26.9,00.0,38.0,31.0,27.7,0000.0,0008.52,0004.03,0003.49
2022-07-15 03:04:00,,0831.3,5.00,0.00,29.2,27.1,00.0,38.0,31.0,27.7,0000.0,0008.62,0004.04,0003.48
2022-07-15 03:05:00,,0831.2,5.00,0.00,29.2,27.2,00.0,38.0,31.0,27.8,0000.0,0008.63,0004.02,0003.47
2022-07-15 03:06:00,,0831.3,5.01,0.00,29.2,27.4,00.0,38.0,31.1,27.7,0000.0,0008.69,0004.04,0003.46
2022-07-15 03:07:00,,0831.2,4.99,0.00,29.2,27.6,00.0,38.0,31.1,27.7,0000.0,0008.69,0004.05,0003.46
2022-07-15 03:08:00,,0831.3,5.01,0.00,29.3,27.8,00.0,38.0,31.2,27.6,0000.0,0008.28,0004.05,0003.46
2022-07-15 03:09:00,,0831.3,5.00,0.00,29.3,27.9,00.0,38.0,31.2,27.5,0000.0,0007.97,0004.03,0003.46
2022-07-15 03:10:00,,0831.3,5.00,0.00,29.3,28.1,00.0,38.0,31.3,27.5,0000.0,0007.63,0004.02,0003.47
2022-07-15 03:11:00,,0831.3,5.00,0.00,29.3,28.2,00.0,38.1,31.3,27.4,0000.0,0007.49,0003.99,0003.47
2022-07-15 03:12:00,,0831.4,5.00,0.00,29.4,28.3,00.0,38.1,31.4,27.2,0000.0,0007.39,0003.98,0003.47
2022-07-15 03:13:00,,0831.4,5.00,0.00,29.4,28.4,00.0,38.1,31.4,27.2,0000.0,0007.31,0003.98,0003.46
2022-07-15 03:14:00,,0831.5,5.00,0.00,29.5,28.5,00.0,38.1,31.5,27.1,0000.0,0006.95,0003.96,0003.46
2022-07-15 03:15:00,,0831.5,5.00,0.00,29.5,28.3,00.0,38.1,31.5,27.2,0000.0,0007.24,0003.96,0003.46
2022-07-15 03:16:00,,0831.5,4.99,0.00,29.5,27.6,00.0,38.1,31.3,27.2,0000.0,0007.36,0003.96,0003.47
2022-07-15 03:17:00,,0831.5,5.01,0.00,29.4,27.0,00.0,38.0,31.2,27.3,0000.0,0007.29,0003.93,0003.47
2022-07-15 03:18:00,,0831.4,5.01,0.00,29.3,26.9,00.0,38.0,31.1,27.4,0000.0,0007.45,0003.96,0003.48
2022-07-15 03:19:00,,0831.5,4.99,0.00,29.3,27.0,00.0,38.0,31.0,27.6,0000.0,0007.56,0003.97,0003.48
2022-07-15 03:20:00,,0831.5,5.00,0.00,29.3,27.1,00.0,38.0,31.0,27.7,0000.0,0008.00,0003.97,0003.48
2022-07-15 03:21:00,,0831.5,5.00,0.00,29.2,27.3,00.0,38.0,31.1,27.8,0000.0,0008.30,0003.98,0003.48
2022-07-15 03:22:00,,0831.5,4.99,0.00,29.3,27.5,00.0,38.0,31.1,27.9,0000.0,0008.37,0003.99,0003.48
2022-07-15 03:23:00,,0831.5,5.00,0.00,29.3,27.7,00.0,38.0,31.2,27.8,0000.0,0008.36,0003.99,0003.49
2022-07-15 03:24:00,,0831.6,5.00,0.00,29.3,27.9,00.0,38.0,31.2,27.8,0000.0,0008.43,0004.03,0003.50
2022-07-15 03:25:00,,0831.5,5.01,0.00,29.3,28.0,00.0,38.1,31.2,27.8,0000.0,0008.57,0004.08,0003.51
2022-07-15 03:26:00,,0831.5,4.99,0.00,29.3,28.2,00.0,38.1,31.3,27.9,0000.0,0008.38,0004.09,0003.51
2022-07-15 03:27:00,,0831.5,5.00,0.00,29.4,28.3,00.0,38.1,31.3,27.8,0000.0,0008.20,0004.09,0003.50
2022-07-15 03:28:00,,0831.5,5.00,0.00,29.4,28.4,00.0,38.1,31.4,27.8,0000.0,0008.04,0004.06,0003.51
2022-07-15 03:29:00,,0831.5,5.00,0.00,29.5,28.5,00.0,38.1,31.4,27.7,0000.0,0007.89,0004.03,0003.50
2022-07-15 03:30:00,,0831.6,5.00,0.00,29.5,28.5,00.0,38.1,31.5,27.6,0000.0,0007.84,0004.06,0003.51
2022-07-15 03:31:00,,0831.7,5.01,0.00,29.5,27.9,00.0,38.1,31.4,27.6,0000.0,0007.27,0004.04,0003.51
2022-07-15 03:32:00,,0831.6,4.99,0.00,29.4,27.1,00.0,38.1,31.3,27.7,0000.0,0006.93,0004.03,0003.51
2022-07-15 03:33:00,,0831.7,5.02,0.00,29.4,26.9,00.0,38.0,31.2,27.7,0000.0,0007.72,0004.03,0003.52
2022-07-15 03:34:00,,0831.7,5.00,0.00,29.3,26.9,00.0,38.0,31.0,27.6,0000.0,0007.69,0004.03,0003.52
2022-07-15 03:35:00,,0831.7,5.00,0.00,29.3,27.0,00.0,38.0,31.0,27.7,0000.0,0007.70,0004.01,0003.52
2022-07-15 03:36:00,,0831.7,4.99,0.00,29.3,27.2,00.0,38.0,31.0,27.8,0000.0,0007.56,0003.96,0003.51
2022-07-15 03:37:00,,0831.7,5.01,0.00,29.3,27.4,00.0,38.0,31.1,27.8,0000.0,0007.49,0003.95,0003.51
2022-07-15 03:38:00,,0831.7,4.99,0.00,29.3,27.6,00.0,38.0,31.2,27.7,0000.0,0007.50,0003.96,0003.51
2022-07-15 03:39:00,,0831.7,5.00,0.00,29.3,27.8,00.0,38.0,31.2,27.7,0000.0,0007.56,0003.98,0003.50
2022-07-15 03:40:00,,0831.7,5.00,0.00,29.3,27.9,00.0,38.1,31.3,27.6,0000.0,0007.65,0004.01,0003.50
2022-07-15 03:41:00,,0831.7,5.00,0.00,29.4,28.1,00.0,38.1,31.3,27.5,0000.0,0007.58,0003.98,0003.49
2022-07-15 03:42:00,,0831.8,5.00,0.00,29.4,28.2,00.0,38.1,31.4,27.4,0000.0,0007.56,0003.96,0003.48
2022-07-15 03:43:00,,0831.7,5.00,0.00,29.4,28.3,00.0,38.1,31.4,27.2,0000.0,0007.53,0003.94,0003.47
2022-07-15 03:44:00,,0831.7,5.00,0.00,29.5,28.4,00.0,38.1,31.5,27.1,0000.0,0006.66,0003.96,0003.46
2022-07-15 03:45:00,,0831.7,5.00,0.00,29.5,28.5,00.0,38.2,31.5,27.1,0000.0,0006.72,0003.98,0003.46
2022-07-15 03:46:00,,0831.7,5.00,0.00,29.5,28.3,00.0,38.1,31.5,27.1,0000.0,0006.71,0003.96,0003.45
2022-07-15 03:47:00,,0831.7,5.00,0.00,29.5,27.6,00.0,38.1,31.4,27.2,0000.0,0006.70,0003.96,0003.45
2022-07-15 03:48:00,,0831.7,4.99,0.00,29.4,27.0,00.0,38.1,31.2,27.2,0000.0,0006.69,0003.94,0003.44
2022-07-15 03:49:00,,0831.7,5.00,0.00,29.4,26.9,00.0,38.1,31.1,27.3,0000.0,0006.61,0003.92,0003.43
2022-07-15 03:50:00,,0831.7,5.00,0.00,29.3,27.0,00.0,38.0,31.1,27.1,0000.0,0006.69,0003.91,0003.42
2022-07-15 03:51:00,,0831.7,5.00,0.00,29.3,27.2,00.0,38.0,31.1,27.0,0000.0,0006.87,0003.84,0003.41
2022-07-15 03:52:00,,0831.7,5.00,0.00,29.3,27.4,00.0,38.0,31.1,26.5,0000.0,0007.42,0003.80,0003.38
2022-07-15 03:53:00,,0831.7,5.00,0.00,29.3,27.5,00.0,38.0,31.1,26.3,0000.0,0007.82,0003.78,0003.34
2022-07-15 03:54:00,,0831.8,5.01,0.00,29.3,27.7,00.0,38.1,31.2,26.2,0000.0,0007.78,0003.75,0003.31
2022-07-15 03:55:00,,0831.8,5.00,0.00,29.3,27.9,00.0,38.1,31.2,25.8,0000.0,0007.54,0003.66,0003.27
2022-07-15 03:56:00,,0831.9,5.00,0.00,29.3,28.0,00.0,38.1,31.3,25.6,0000.0,0007.39,0003.58,0003.22
2022-07-15 03:57:00,,0832.0,5.00,0.00,29.4,28.2,00.0,38.1,31.3,25.8,0000.0,0007.10,0003.51,0003.18
2022-07-15 03:58:00,,0832.0,5.00,0.00,29.4,28.3,00.0,38.1,31.4,25.8,0000.0,0007.00,0003.46,0003.14
2022-07-15 03:59:00,,0832.0,5.00,0.00,29.4,28.4,00.0,38.1,31.4,25.7,0000.0,0006.94,0003.40,0003.09
